Brownsville, TX

9:58 PM CST on November 24, 2017 (GMT -0600)
Brownsville-South Padre I International

Weather History for KBRO - March, 2013

Change the Weather History Date:

Saturday, March 16, 2013

  Actual Average Record
Temperature  
Mean Temperature 71 °F 69 °F  
Max Temperature 82 °F 79 °F 91 °F (1982)
Min Temperature 60 °F 60 °F 36 °F (1880)
Degree Days  
Heating Degree Days 0 1  
Month to date heating degree days 22 29  
Since 1 July heating degree days 315 532  
Cooling Degree Days 6 5  
Month to date cooling degree days 48 75  
Year to date cooling degree days 269 216  
Growing Degree Days 21 (Base 50)    
Moisture  
Dew Point 63 °F    
Average Humidity 78    
Maximum Humidity 97    
Minimum Humidity 58    
Precipitation  
Precipitation 0.01 in 0.04 in 0.73 in (1926)
Month to date precipitation 0.27 0.57  
Year to date precipitation 1.75 2.92  
Sea Level Pressure  
Sea Level Pressure 29.92 in    
Wind  
Wind Speed 17 mph (SSE)    
Max Wind Speed 30 mph    
Max Gust Speed 37 mph    
Visibility 10 miles    
Events Rain    
T = Trace of Precipitation, MM = Missing Value Source: NWS Daily Summary

Daily Weather History Graph

Daily Weather History Graph

Search for Another Location

Airport or City:

Trip Planner

Search our weather history database for the weather conditions in past years. The results will help you decide how hot, cold, wet, or windy it might be!

Date:

Astronomy

Mar. 16, 2013 Rise Set
Actual Time 7:37 AM CDT 7:39 PM CDT
Civil Twilight 7:14 AM CDT 8:02 PM CDT
Nautical Twilight 6:47 AM CDT 8:28 PM CDT
Astronomical Twilight 6:21 AM CDT 8:55 PM CDT
Moon 10:37 AM CDT (3/16) No Moon Set
Length of Visible Light 12h 47m
Length of Day
12h 01m
Waxing Crescent, 23% of the Moon is Illuminated
Mar 16
Waxing Crescent
Mar 19
First Quarter
Mar 27
Full
Apr 2
Last Quarter
Apr 10
New

Hourly Weather History & Observations

Time (CDT) Temp. Dew Point Humidity Pressure Visibility Wind Dir Wind Speed Gust Speed Precip Events Conditions
12:53 AM 61.0 °F 57.9 °F 90% 30.06 in 10.0 mi SSE 4.6 mph - N/A   Clear
1:53 AM 61.0 °F 57.9 °F 90% 30.04 in 10.0 mi SSE 5.8 mph - N/A   Clear
2:53 AM 62.1 °F 59.0 °F 90% 30.02 in 10.0 mi SSE 3.5 mph - N/A   Clear
3:53 AM 60.1 °F 59.0 °F 96% 29.99 in 10.0 mi SSE 5.8 mph - N/A   Clear
4:53 AM 64.0 °F 61.0 °F 90% 29.97 in 10.0 mi SE 6.9 mph - 0.00 in   Clear
5:53 AM 64.9 °F 62.1 °F 90% 29.96 in 10.0 mi SE 5.8 mph - N/A   Clear
6:53 AM 64.0 °F 62.1 °F 93% 29.95 in 10.0 mi SSE 8.1 mph - N/A   Clear
7:53 AM 66.0 °F 63.0 °F 90% 29.95 in 10.0 mi SSE 9.2 mph - N/A   Clear
8:53 AM 68.0 °F 64.0 °F 87% 29.95 in 10.0 mi SSE 12.7 mph - N/A   Clear
9:53 AM 73.9 °F 64.0 °F 71% 29.96 in 10.0 mi SSE 21.9 mph 29.9 mph N/A   Partly Cloudy
10:30 AM 75.2 °F 62.6 °F 65% 29.96 in 10.0 mi SSE 26.5 mph 32.2 mph N/A   Mostly Cloudy
10:46 AM 75.2 °F 62.6 °F 65% 29.96 in 10.0 mi SSE 20.7 mph 33.4 mph N/A   Mostly Cloudy
10:53 AM 75.0 °F 63.0 °F 66% 29.96 in 10.0 mi South 23.0 mph 32.2 mph N/A   Mostly Cloudy
11:08 AM 75.2 °F 62.6 °F 65% 29.95 in 10.0 mi South 21.9 mph 29.9 mph N/A   Mostly Cloudy
11:33 AM 78.8 °F 62.6 °F 57% 29.95 in 10.0 mi SSE 25.3 mph 35.7 mph N/A   Mostly Cloudy
11:53 AM 78.1 °F 64.0 °F 62% 29.94 in 10.0 mi SSE 26.5 mph 34.5 mph N/A   Mostly Cloudy
12:25 PM 78.8 °F 64.4 °F 61% 29.94 in 10.0 mi SSE 26.5 mph 34.5 mph N/A   Mostly Cloudy
12:53 PM 79.0 °F 63.0 °F 58% 29.93 in 10.0 mi SSE 26.5 mph 32.2 mph N/A   Mostly Cloudy
1:53 PM 78.1 °F 63.0 °F 60% 29.90 in 10.0 mi South 26.5 mph 34.5 mph N/A   Mostly Cloudy
2:53 PM 79.0 °F 63.0 °F 58% 29.87 in 10.0 mi SSE 20.7 mph 33.4 mph N/A   Mostly Cloudy
3:53 PM 75.9 °F 64.0 °F 67% 29.85 in 10.0 mi SSE 26.5 mph 34.5 mph N/A   Mostly Cloudy
4:00 PM 75.2 °F 64.4 °F 69% 29.85 in 10.0 mi SSE 26.5 mph 34.5 mph N/A   Mostly Cloudy
4:13 PM 75.2 °F 64.4 °F 69% 29.85 in 10.0 mi SSE 28.8 mph 35.7 mph N/A   Mostly Cloudy
4:53 PM 75.0 °F 64.0 °F 69% 29.83 in 10.0 mi SSE 23.0 mph 34.5 mph 0.00 in   Mostly Cloudy
5:53 PM 73.9 °F 64.0 °F 71% 29.82 in 10.0 mi SSE 23.0 mph 32.2 mph 0.00 in   Mostly Cloudy
6:06 PM 73.4 °F 62.6 °F 69% 29.82 in 10.0 mi SSE 24.2 mph 32.2 mph N/A   Overcast
6:53 PM 73.0 °F 63.0 °F 71% 29.83 in 10.0 mi SSE 21.9 mph 27.6 mph N/A   Overcast
7:34 PM 71.6 °F 64.4 °F 78% 29.83 in 10.0 mi SE 21.9 mph 29.9 mph N/A   Mostly Cloudy
7:53 PM 71.1 °F 64.0 °F 78% 29.83 in 10.0 mi SSE 18.4 mph 27.6 mph 0.00 in Rain Light Rain
8:53 PM 71.1 °F 64.0 °F 78% 29.85 in 10.0 mi SSE 19.6 mph 26.5 mph 0.00 in   Scattered Clouds
9:53 PM 69.1 °F 64.9 °F 87% 29.86 in 10.0 mi SSE 15.0 mph - 0.01 in   Mostly Cloudy
10:53 PM 69.1 °F 64.9 °F 87% 29.86 in 10.0 mi SSE 17.3 mph 21.9 mph N/A   Clear
11:53 PM 69.1 °F 64.9 °F 87% 29.84 in 10.0 mi SSE 18.4 mph - N/A   Clear